Wind_Speed
49 49 50 51 52 53 54 54 55 56 57 57 57 58 58 58 58 59 59 58 58 59 59 60 61 60 59 59 60 60 60 60 59 57 58 58 58 58 58 58 58 57 57
48 48 48 49 50 51 52 53 53 54 55 56 56 57 57 56 56 58 58 58 57 57 58 58 59 60 60 59 59 60 60 61 60 59 58 58 58 58 58 59 59 59 58
47 47 48 49 49 50 51 52 52 53 54 55 55 55 55 56 56 57 57 58 58 56 56 57 58 58 59 60 59 60 60 60 60 59 58 58 58 58 58 58 58 59 58
46 46 47 48 49 49 50 50 51 51 52 52 52 53 54 54 55 55 56 56 56 56 55 56 57 57 58 59 59 60 60 59 59 59 59 59 59 59 59 58 58 59 59
45 46 46 47 48 48 49 49 50 50 49 49 49 50 51 51 52 53 54 54 55 55 54 54 56 56 57 58 58 58 59 59 58 58 58 58 57 58 58 58 58 58 58
45 45 46 47 47 47 47 47 48 48 48 48 48 48 48 48 49 50 51 52 53 53 52 53 54 53 54 56 57 57 57 57 57 57 57 57 56 56 56 57 57 58 57
44 45 46 46 46 46 45 45 46 46 47 47 47 47 46 46 46 47 48 49 50 50 50 50 51 51 51 52 54 54 55 55 56 56 56 55 54 54 54 55 55 56 56
44 44 45 45 45 44 44 44 44 45 45 45 45 45 45 44 44 45 46 46 47 48 49 51 50 50 50 50 50 51 52 53 54 55 54 53 53 53 53 53 54 54 54
43 43 43 43 43 43 43 43 43 43 43 43 42 43 43 43 44 44 45 44 44 46 47 48 49 48 48 49 49 48 49 50 51 52 51 52 52 53 53 52 52 52 53
43 43 43 42 42 41 42 42 42 42 41 41 40 40 42 43 43 44 44 44 44 44 45 46 47 47 47 47 47 47 46 47 48 48 49 50 50 50 50 51 51 51 52
43 43 42 41 40 40 40 40 40 40 40 40 39 39 40 41 42 42 42 42 43 43 43 44 45 45 45 45 45 45 45 45 45 46 47 47 47 47 47 48 49 49 49
42 42 41 40 40 39 38 38 38 38 38 38 38 38 39 40 41 42 42 42 41 41 40 41 42 43 43 42 42 42 43 44 44 44 45 45 45 45 45 46 47 47 47
42 41 40 39 39 38 38 38 37 37 37 37 37 37 37 38 39 39 39 40 40 39 38 39 40 40 40 40 39 40 41 42 42 42 43 43 44 45 45 45 46 46 45
41 40 39 39 38 38 37 36 36 35 35 36 36 35 35 35 36 37 38 38 37 37 37 38 39 39 39 38 39 38 38 39 40 40 41 42 43 44 44 44 45 45 45
41 39 39 38 37 36 35 35 34 34 34 34 34 34 33 32 33 34 35 35 35 35 35 35 36 37 37 37 38 38 38 38 38 39 39 40 41 42 42 42 43 43 43
40 39 38 37 36 35 34 32 32 32 32 32 31 31 30 30 30 30 31 32 32 32 33 34 35 36 36 36 37 38 39 38 38 39 39 39 40 40 40 41 41 41 41
39 38 37 36 35 34 33 32 30 30 30 30 30 29 28 28 28 28 29 29 30 31 31 31 32 33 34 35 36 37 38 38 38 38 39 39 39 40 40 40 40 41 41
37 36 36 35 34 33 32 31 30 28 27 27 28 28 27 27 27 28 28 28 29 29 29 29 30 31 32 33 34 35 36 37 37 37 37 38 38 38 39 39 40 40 39
36 35 35 34 33 31 30 29 29 28 26 26 26 27 27 27 27 28 27 27 27 28 28 28 28 29 30 31 31 32 33 34 35 36 36 36 36 36 36 36 38 39 39
35 35 35 34 32 30 29 28 27 26 25 25 25 25 25 26 26 27 27 26 26 27 27 27 27 27 28 29 29 30 31 31 32 33 34 34 34 34 35 35 36 36 36
34 34 34 33 31 30 28 27 25 25 25 24 24 24 24 24 24 25 25 26 26 26 26 27 26 27 27 27 28 28 29 29 30 31 32 33 34 34 34 35 35 35 35
33 33 33 31 29 28 27 25 24 23 23 23 23 23 23 23 23 23 23 24 24 24 25 25 26 26 26 26 27 28 28 28 29 30 30 31 32 33 33 34 34 35 35
32 31 30 29 28 26 25 24 23 23 23 23 22 22 22 22 23 22 22 23 23 23 24 24 25 25 26 26 26 27 27 28 28 29 30 30 31 31 31 32 32 33 33
31 30 29 27 26 25 24 23 23 23 23 22 22 22 21 21 21 22 22 22 23 23 23 23 24 24 24 25 26 26 26 26 27 28 29 30 30 30 30 31 32 32 32
30 29 28 26 25 24 23 23 22 22 22 22 22 22 21 21 21 21 21 21 21 21 21 22 23 23 23 24 25 26 26 27 27 28 28 29 29 30 30 31 31 32 32
29 28 27 26 24 23 22 22 21 21 21 20 21 21 20 20 20 20 20 20 20 20 21 21 22 22 23 23 24 25 26 26 27 27 27 28 28 29 29 29 30 30 31
Wind_Direction
283 281 279 277 275 274 272 270 269 266 265 265 263 262 262 262 261 260 259 259 259 258 258 258 258 257 257 256 255 255 254 254 253 250 250 250 251 251 252 252 252 252 252
285 283 281 279 278 276 273 271 269 268 266 265 264 262 262 262 262 260 259 258 258 258 258 258 257 257 256 256 255 255 254 254 253 251 250 250 251 251 252 252 252 252 252
287 285 283 280 279 277 275 272 270 269 267 266 265 264 263 263 262 261 259 258 257 257 256 256 256 256 256 255 255 254 253 253 253 252 251 251 251 251 252 252 252 252 252
288 287 285 283 280 278 276 274 271 269 268 266 266 265 264 264 263 262 259 258 258 256 255 255 256 255 255 255 254 254 253 253 253 252 252 251 251 251 252 252 251 251 251
290 288 286 286 283 280 277 276 273 270 269 267 266 266 265 264 263 262 260 258 257 257 255 256 256 255 254 254 255 254 253 253 253 253 252 252 251 251 252 252 251 250 250
290 289 287 286 285 282 279 278 275 271 269 267 266 265 264 264 263 262 261 259 257 257 256 255 255 255 253 254 254 253 252 252 252 253 252 252 251 251 250 250 250 249 249
293 291 289 287 287 284 281 279 276 272 269 267 266 265 264 263 263 262 261 260 259 258 257 255 255 255 254 253 253 252 252 252 252 252 252 251 251 249 249 248 248 248 248
295 293 292 289 288 286 282 280 277 273 270 268 267 266 264 263 262 262 261 260 260 260 258 256 256 256 254 253 254 253 253 252 252 252 251 251 250 247 248 247 248 248 248
296 295 294 291 289 287 284 281 279 275 271 269 268 266 264 263 263 263 261 260 260 260 259 258 257 255 254 254 254 253 253 252 251 251 250 250 249 247 247 247 247 248 248
297 296 295 293 290 289 286 282 279 276 272 269 268 267 265 263 263 264 263 261 260 260 258 257 256 255 254 253 254 253 253 251 250 250 249 249 249 248 247 246 247 248 248
298 296 295 294 292 291 289 284 280 276 273 269 268 268 267 265 264 264 264 263 262 259 257 256 255 254 254 253 254 253 252 251 249 249 248 247 247 247 247 247 248 248 248
299 297 295 294 293 292 290 286 281 276 272 269 268 268 268 267 265 264 264 263 262 260 258 256 254 254 254 253 252 252 251 250 249 249 248 246 246 246 246 247 247 247 248
300 298 296 295 294 293 291 287 282 278 273 270 269 269 269 267 265 263 262 262 261 260 257 255 254 254 253 252 251 251 250 250 249 248 248 247 245 245 245 246 246 246 247
300 299 297 295 294 293 291 289 284 279 274 271 269 269 269 267 264 261 261 261 260 257 255 254 253 253 252 251 250 250 250 249 248 248 248 247 246 245 245 246 246 246 247
300 299 297 296 295 294 291 289 285 280 276 273 271 270 268 266 263 261 260 259 258 255 254 252 250 250 250 249 248 249 249 248 247 247 247 247 246 246 246 246 246 246 247
299 298 297 296 294 293 290 287 285 281 276 273 271 270 268 266 262 260 258 257 257 256 254 252 250 249 248 247 246 248 247 247 246 246 246 245 245 244 244 245 246 246 246
300 299 298 297 294 293 291 286 283 280 277 273 270 269 267 265 262 260 258 256 255 254 254 251 249 249 247 246 246 246 246 245 245 245 245 245 245 244 244 244 244 245 246
300 300 299 299 296 293 290 287 283 279 274 271 268 267 266 264 261 260 256 255 254 253 252 250 249 248 247 246 245 245 245 244 244 244 244 244 244 244 244 244 244 244 245
300 300 300 300 298 294 291 287 283 280 275 271 268 265 264 263 261 260 257 257 255 253 251 250 250 250 248 246 245 244 243 243 242 241 241 242 242 243 243 243 242 242 242
300 300 300 299 298 294 290 286 281 278 275 271 268 265 262 261 261 260 259 257 256 254 251 250 251 250 248 247 246 244 242 241 240 240 240 240 240 241 241 241 241 241 241
300 300 301 299 296 293 290 286 281 275 273 270 266 264 262 262 261 259 257 255 253 251 250 250 249 248 247 246 244 242 240 239 239 239 239 237 237 238 240 240 239 239 239
301 301 300 299 296 293 289 285 281 275 271 268 266 263 261 260 260 259 256 253 250 250 249 248 247 246 245 244 241 240 239 239 238 237 237 237 237 238 238 239 239 239 239
302 301 300 298 296 293 289 284 281 276 272 268 266 264 261 260 260 259 256 253 250 249 248 246 245 244 245 244 241 240 239 239 240 239 239 238 239 239 240 240 240 240 240
302 301 299 297 295 292 288 284 281 277 272 268 266 264 262 260 258 256 255 252 250 248 246 245 244 243 241 241 239 238 237 237 238 238 239 239 240 241 242 242 241 241 241
301 300 299 296 293 290 287 283 281 277 273 268 265 263 261 259 258 257 255 252 251 249 246 243 242 241 240 239 238 238 237 237 238 239 240 240 240 241 243 244 243 243 242
300 299 298 295 292 289 285 282 279 277 273 268 263 260 259 259 258 256 255 252 249 247 245 243 240 240 240 240 239 239 239 238 239 240 241 241 241 242 243 243 243 241 241
Height
5579 5576 5574 5571 5569 5567 5565 5564 5563 5563 5562 5563 5563 5565 5565 5567 5568 5569 5571 5573 5576 5579 5581 5583 5586 5588 5590 5593 5595 5598 5601 5605 5610 5617 5620 5623 5626 5629 5632 5636 5639 5643 5647
5566 5562 5559 5556 5554 5551 5549 5548 5547 5546 5546 5546 5546 5547 5548 5549 5550 5552 5554 5556 5558 5561 5564 5566 5568 5570 5573 5575 5578 5581 5584 5588 5592 5598 5603 5606 5610 5612 5616 5619 5623 5627 5631
5552 5548 5545 5542 5539 5536 5534 5531 5530 5530 5530 5530 5530 5530 5531 5532 5533 5534 5536 5538 5541 5544 5546 5549 5551 5553 5556 5558 5561 5564 5567 5571 5574 5579 5585 5589 5593 5596 5599 5603 5607 5610 5615
5539 5535 5531 5527 5524 5521 5518 5516 5515 5514 5514 5514 5514 5514 5514 5515 5516 5517 5519 5521 5523 5526 5529 5531 5534 5536 5539 5541 5544 5547 5550 5554 5557 5561 5567 5572 5576 5579 5582 5587 5591 5594 5598
5525 5521 5517 5514 5510 5507 5505 5502 5501 5500 5499 5499 5498 5498 5498 5499 5500 5500 5502 5504 5507 5510 5512 5515 5517 5519 5522 5524 5527 5530 5533 5537 5540 5544 5549 5554 5559 5563 5566 5570 5574 5578 5582
5513 5509 5504 5501 5497 5493 5491 5489 5487 5485 5485 5485 5484 5484 5484 5484 5484 5485 5486 5488 5491 5494 5496 5499 5501 5503 5505 5508 5510 5513 5517 5520 5524 5528 5533 5537 5542 5546 5549 5553 5557 5561 5567
5501 5496 5492 5488 5484 5480 5478 5475 5473 5472 5471 5471 5471 5470 5471 5470 5471 5471 5472 5474 5476 5479 5481 5483 5485 5487 5489 5491 5494 5497 5501 5504 5508 5512 5516 5521 5525 5530 5533 5537 5540 5544 5550
5489 5484 5479 5475 5471 5468 5465 5462 5460 5459 5458 5458 5457 5457 5457 5458 5458 5459 5460 5461 5463 5464 5466 5467 5469 5472 5474 5476 5479 5482 5485 5489 5493 5496 5501 5506 5509 5512 5517 5521 5525 5529 5534
5477 5472 5467 5463 5459 5455 5452 5450 5448 5446 5445 5445 5444 5444 5445 5445 5445 5446 5446 5448 5450 5451 5452 5453 5455 5457 5460 5462 5464 5468 5471 5474 5477 5481 5485 5489 5493 5497 5501 5505 5510 5514 5519
5465 5460 5455 5451 5447 5443 5440 5437 5435 5434 5433 5432 5432 5432 5432 5432 5433 5433 5433 5435 5437 5438 5439 5440 5441 5443 5445 5447 5450 5453 5457 5460 5463 5466 5470 5474 5478 5482 5486 5491 5496 5500 5504
5454 5449 5444 5439 5435 5431 5428 5425 5423 5422 5421 5421 5421 5420 5420 5420 5420 5420 5420 5421 5422 5424 5425 5427 5428 5430 5432 5434 5437 5440 5443 5446 5449 5453 5456 5460 5464 5468 5473 5477 5482 5486 5490
5443 5438 5433 5428 5424 5420 5416 5414 5411 5409 5409 5409 5408 5409 5408 5407 5407 5407 5408 5408 5409 5411 5413 5414 5416 5418 5420 5422 5425 5428 5430 5433 5436 5440 5444 5448 5452 5456 5460 5464 5468 5472 5476
5432 5427 5422 5417 5413 5408 5405 5402 5400 5398 5397 5397 5397 5397 5397 5396 5395 5396 5396 5397 5397 5399 5401 5403 5404 5406 5408 5411 5413 5416 5418 5421 5425 5428 5432 5436 5440 5443 5447 5451 5455 5459 5463
5421 5416 5412 5407 5403 5399 5395 5391 5389 5387 5386 5386 5386 5386 5386 5385 5384 5384 5385 5386 5387 5388 5390 5391 5393 5395 5397 5400 5402 5405 5407 5410 5413 5417 5420 5424 5427 5431 5435 5439 5443 5446 5450
5411 5406 5401 5397 5392 5389 5385 5381 5378 5377 5375 5375 5375 5375 5375 5375 5374 5374 5374 5376 5377 5378 5379 5381 5383 5384 5387 5389 5392 5394 5397 5400 5403 5406 5409 5413 5416 5419 5423 5427 5430 5434 5438
5400 5395 5391 5386 5382 5378 5375 5372 5369 5367 5365 5364 5364 5364 5364 5364 5364 5364 5365 5365 5366 5368 5369 5371 5373 5375 5377 5379 5382 5385 5387 5390 5393 5396 5399 5402 5405 5408 5412 5416 5419 5422 5426
5389 5384 5380 5375 5371 5368 5365 5362 5360 5358 5355 5354 5354 5354 5354 5354 5354 5355 5356 5356 5357 5359 5360 5361 5363 5365 5367 5370 5372 5375 5378 5380 5383 5385 5388 5391 5394 5397 5401 5404 5408 5411 5415
5378 5374 5369 5365 5361 5358 5355 5352 5350 5348 5347 5346 5345 5345 5345 5345 5345 5346 5347 5348 5348 5349 5351 5352 5354 5356 5358 5360 5362 5365 5368 5370 5373 5376 5378 5381 5384 5387 5390 5394 5397 5401 5404
5368 5364 5360 5356 5352 5348 5345 5343 5341 5339 5338 5337 5336 5336 5336 5337 5337 5337 5338 5339 5340 5341 5342 5344 5345 5347 5349 5350 5353 5355 5358 5361 5363 5366 5369 5372 5374 5377 5380 5384 5387 5391 5394
5358 5354 5350 5346 5342 5339 5336 5334 5332 5330 5329 5328 5328 5328 5328 5328 5328 5329 5329 5330 5331 5333 5334 5335 5337 5338 5340 5342 5344 5346 5349 5351 5354 5357 5360 5363 5366 5369 5372 5375 5378 5381 5385
5348 5344 5340 5336 5332 5329 5327 5325 5323 5322 5321 5320 5320 5320 5320 5320 5320 5321 5321 5322 5323 5324 5326 5327 5329 5330 5332 5334 5336 5338 5340 5343 5346 5348 5351 5354 5357 5360 5363 5366 5369 5372 5375
5338 5334 5330 5326 5323 5320 5318 5316 5314 5313 5313 5313 5312 5312 5312 5312 5313 5313 5314 5315 5316 5317 5318 5319 5321 5322 5324 5326 5328 5330 5333 5335 5338 5340 5343 5346 5349 5352 5354 5357 5360 5363 5367
5328 5324 5321 5317 5314 5312 5309 5308 5306 5305 5305 5305 5305 5305 5305 5305 5305 5306 5307 5307 5308 5309 5310 5312 5313 5315 5317 5318 5320 5323 5325 5327 5330 5332 5335 5338 5341 5343 5346 5349 5351 5355 5358
5319 5315 5312 5309 5306 5304 5302 5300 5298 5297 5297 5297 5297 5297 5297 5297 5298 5299 5299 5300 5301 5302 5303 5304 5306 5308 5309 5311 5313 5315 5318 5320 5322 5325 5327 5330 5333 5336 5338 5341 5343 5346 5349
5310 5307 5303 5301 5298 5296 5294 5292 5291 5290 5289 5289 5289 5289 5290 5290 5291 5291 5292 5293 5294 5295 5296 5298 5299 5301 5303 5305 5307 5309 5311 5313 5315 5317 5320 5322 5325 5328 5330 5333 5335 5338 5341
5301 5298 5295 5292 5290 5288 5286 5285 5284 5283 5282 5282 5282 5282 5283 5283 5284 5284 5285 5286 5287 5288 5290 5291 5293 5295 5297 5298 5300 5302 5304 5306 5308 5310 5312 5315 5317 5319 5322 5324 5327 5330 5333